SAUDICOMSAT 6

Last updated on July 6, 2021, 3:39 p.m. UTC

1 31121U 07012E   21186.83932300  .00000039  00000-0  18414-4 0  9998
2 31121  98.1882 127.1444 0076195 190.3021 169.6621 14.58668507756417
UTC
Height (km)
Latitude
Longitude
Inclination
Orbital Period
UTC large
Height (km)
Speed (km/s)
/
Latitude / Longitude
Inclination (degrees)
Orbital Period (minutes)
Azimuth
Elevation
Range (km)
Doppler Factor
iOS Compass Heading
iOS Angle